United States

Cheney, KS Weather Archive

Below you will find the last 24 hours of weather readings for Cheney KS

Cheney KS Today's Weather Data

Observed at: Cheney, KS

Hour Observerd Temp Pressure Visibility Humidity Dew Point Wind
00:00 Overcast 49°F (9.4°C) 98.21 kPa 10 miles 71% 39.9°F (4.4°C) 16 mph S 173.75°26 mph
23:00 Overcast 49°F (9.4°C) 98.21 kPa 10 miles 66% 37.9°F (3.3°C) 15 mph S 173.75°24 mph
22:00 Overcast 49°F (9.4°C) 98.21 kPa 10 miles 66% 37.9°F (3.3°C) 15 mph S 173.75°24 mph
21:00 Overcast 49°F (9.4°C) 98.21 kPa 10 miles 66% 37.9°F (3.3°C) 12 mph S 173.75°27 mph
20:00 Overcast 49°F (9.4°C) 98.21 kPa 10 miles 61% 36°F (2.2°C) 12 mph S 173.75°27 mph
19:00 Overcast 49°F (9.4°C) 98.21 kPa 10 miles 61% 36°F (2.2°C) 12 mph S 173.75°21 mph
18:00 Light Rain 52°F (11.1°C) 98.21 kPa 10 miles 49% 33.1°F (0.6°C) 16 mph S 173.75°24 mph
17:00 Light Rain 52°F (11.1°C) 98.21 kPa 10 miles 49% 33.1°F (0.6°C) 16 mph S 173.75°24 mph
16:00 Overcast 53°F (11.7°C) 98.21 kPa 10 miles 41% 30°F (-1.1°C) 18 mph S 173.75°26 mph
15:00 Overcast 53°F (11.7°C) 101.59 kPa 10 miles 41% 30°F (-1.1°C) 16 mph S 173.75°23 mph
14:00 Overcast 54°F (12.2°C) 101.59 kPa 10 miles 40% 30°F (-1.1°C) 17 mph S 173.75°26 mph
13:00 Overcast 54°F (12.2°C) 101.59 kPa 10 miles 40% 30°F (-1.1°C) 17 mph S 173.75°24 mph
12:00 Overcast 55°F (12.8°C) 101.59 kPa 10 miles 40% 30.9°F (-0.6°C) 13 mph S 173.75°24 mph
11:00 Overcast 49°F (9.4°C) 101.59 kPa 10 miles 46% 28.9°F (-1.7°C) 11 mph S 173.75°20 mph
10:00 Overcast 49°F (9.4°C) 101.59 kPa 10 miles 46% 28.9°F (-1.7°C) 11 mph S 173.75°20 mph
09:00 Overcast 45°F (7.2°C) 101.59 kPa 10 miles 49% 27°F (-2.8°C) 10 mph S 173.75°25 mph
08:00 Overcast 43°F (6.1°C) 101.59 kPa 10 miles 51% 26.1°F (-3.3°C) -
07:00 Mostly Cloudy 40°F (4.4°C) 101.59 kPa 10 miles 55% 25°F (-3.9°C) 15 mph E 83.75°16 mph
06:00 Overcast 37°F (2.8°C) 101.59 kPa 10 miles 62% 25°F (-3.9°C) 6 mph S 173.75°
05:00 Overcast 37°F (2.8°C) 101.59 kPa 10 miles 62% 25°F (-3.9°C) -
04:00 Overcast 39°F (3.9°C) 101.59 kPa 10 miles 60% 26.1°F (-3.3°C) 6 mph E 83.75°
03:00 Overcast 39°F (3.9°C) 101.59 kPa 10 miles 60% 26.1°F (-3.3°C) 6 mph E 83.75°
02:00 N/A - - % N/A -
01:00 Fair 42°F (5.6°C) 101.59 kPa 10 miles 51% 25°F (-3.9°C) 9 mph E 83.75°


Home | Earthquakes | About Us | Contact Us | Privacy

Copyright Friendly Forecast 2012 - 2021